TimeCDT,TemperatureF,Dew PointF,Humidity,Sea Level PressureIn,VisibilityMPH,Wind Direction,Wind SpeedMPH,Gust SpeedMPH,PrecipitationIn,Events,Conditions,WindDirDegrees,DateUTC
12:02 AM,30.2,26.6,86,29.90,1.5,North,28.8,36.8,0.00,Snow,Light Snow,350,2013-03-10 06:02:00
12:16 AM,30.2,26.6,86,29.91,1.5,North,24.2,38.0,0.00,Snow,Light Snow,350,2013-03-10 06:16:00
12:32 AM,30.2,26.6,86,29.91,1.5,North,31.1,40.3,0.00,Snow,Light Snow,350,2013-03-10 06:32:00
12:48 AM,28.4,24.8,86,29.90,2.0,NNW,25.3,38.0,0.00,Rain,Light Freezing Rain,340,2013-03-10 06:48:00
12:53 AM,28.0,24.1,85,29.98,1.2,North,29.9,42.6,0.00,Rain,Light Freezing Rain,350,2013-03-10 06:53:00
1:01 AM,28.4,24.8,86,29.92,1.5,North,26.5,42.6,0.00,Rain,Light Freezing Rain,350,2013-03-10 07:01:00
1:08 AM,28.4,23.0,80,29.92,2.5,North,24.2,39.1,0.00,Snow,Light Snow,350,2013-03-10 07:08:00
1:21 AM,28.4,21.2,74,29.92,1.2,North,28.8,41.4,0.00,Snow,Light Snow,350,2013-03-10 07:21:00
1:25 AM,28.4,21.2,74,29.93,1.5,North,26.5,41.4,0.00,Snow,Light Snow,350,2013-03-10 07:25:00
1:33 AM,28.4,21.2,74,29.93,3.0,North,26.5,39.1,0.00,Rain,Light Freezing Rain,350,2013-03-10 07:33:00
1:41 AM,28.4,21.2,74,29.94,2.5,North,26.5,40.3,0.00,Rain,Light Freezing Rain,350,2013-03-10 07:41:00
1:53 AM,28.0,19.9,72,30.01,3.0,North,27.6,39.1,0.00,Rain,Light Freezing Rain,360,2013-03-10 07:53:00
3:06 AM,28.4,19.4,69,29.95,8.0,North,24.2,38.0,0.00,,Overcast,350,2013-03-10 08:06:00
3:13 AM,28.4,19.4,69,29.96,10.0,North,25.3,33.4,0.00,Rain,Light Freezing Rain,350,2013-03-10 08:13:00
3:39 AM,26.6,17.6,69,29.97,10.0,North,23.0,33.4,0.00,,Overcast,350,2013-03-10 08:39:00
3:53 AM,26.6,17.6,69,29.97,10.0,North,20.7,29.9,N/A,,Overcast,350,2013-03-10 08:53:00
4:53 AM,25.0,17.1,72,30.07,10.0,NNW,23.0,28.8,N/A,,Overcast,340,2013-03-10 09:53:00
5:53 AM,23.0,15.1,72,30.11,10.0,NNW,24.2,33.4,N/A,,Partly Cloudy,340,2013-03-10 10:53:00
6:53 AM,21.2,14.0,74,30.03,10.0,NNW,19.6,31.1,N/A,,Clear,340,2013-03-10 11:53:00
7:53 AM,19.0,12.0,74,30.14,10.0,NNW,19.6,27.6,N/A,,Clear,330,2013-03-10 12:53:00
8:53 AM,19.0,12.0,74,30.14,10.0,NNW,19.6,27.6,N/A,,Partly Cloudy,340,2013-03-10 13:53:00
9:53 AM,19.9,12.0,71,30.17,10.0,NNW,23.0,32.2,N/A,,Partly Cloudy,340,2013-03-10 14:53:00
10:22 AM,19.4,12.2,74,30.09,10.0,NNW,21.9,27.6,N/A,,Mostly Cloudy,340,2013-03-10 15:22:00
10:53 AM,21.0,12.0,68,30.19,10.0,North,24.2,35.7,N/A,,Scattered Clouds,350,2013-03-10 15:53:00
11:53 AM,23.0,12.9,65,30.19,10.0,NNW,20.7,31.1,N/A,,Clear,340,2013-03-10 16:53:00
12:53 PM,23.0,14.0,68,30.18,10.0,NNW,21.9,34.5,N/A,,Clear,340,2013-03-10 17:53:00
1:53 PM,24.1,14.0,65,30.18,10.0,NNW,27.6,35.7,N/A,,Partly Cloudy,340,2013-03-10 18:53:00
2:53 PM,26.1,15.1,63,30.16,10.0,North,21.9,32.2,N/A,,Clear,360,2013-03-10 19:53:00
3:53 PM,27.0,15.1,61,30.16,10.0,NNW,26.5,32.2,N/A,,Clear,330,2013-03-10 20:53:00
4:53 PM,28.0,16.0,61,30.16,10.0,NNW,18.4,25.3,N/A,,Clear,340,2013-03-10 21:53:00
5:53 PM,28.0,15.1,58,30.15,10.0,NNW,20.7,27.6,N/A,,Clear,330,2013-03-10 22:53:00
6:53 PM,26.1,12.0,55,30.15,10.0,NNW,19.6,25.3,N/A,,Clear,340,2013-03-10 23:53:00
7:53 PM,24.1,14.0,65,30.16,10.0,NNW,12.7,-,N/A,,Clear,340,2013-03-11 00:53:00
9:53 PM,17.1,10.9,77,30.17,10.0,NW,5.8,-,N/A,,Clear,320,2013-03-11 02:53:00
10:53 PM,15.8,10.4,79,30.03,10.0,NW,6.9,-,N/A,,Clear,310,2013-03-11 03:53:00
11:53 PM,17.1,12.0,81,30.12,10.0,Calm,Calm,-,N/A,,Clear,0,2013-03-11 04:53:00
12:53 AM,16.0,10.9,81,30.12,10.0,WNW,6.9,-,N/A,,Clear,300,2013-03-11 05:53:00